www.pogodaiklimat.ru

Погода и климат >> Архив погоды >> Австралия >> Gingin Aero


ПОГОДА в Gingin Aero

  • Прогноз погоды в Gingin Aero
  • Монитор погоды в Gingin Aero
  • Климат города

АРХИВ ПОГОДЫ в Gingin Aero

Время (UTC), дата Ветер
(напр.,м/с)
 
Видим.   Явления Облачность Т
(С)
Тd
(С)
f
(%)
Тe
(С)
Тes
(С)
Комфортность P
(гПа)
Po
(гПа)
Тmin
(С)
Tmax
(С)
R
(мм)
R24
(мм)
S
(см)
01 17.10 С 7 н/о н/о +26.2 +6.8 29 +26 +26 жарко 1010.5 1001.7 +9.2
03 17.10 С 7 н/о н/о +31.9 +5.4 19 +30 +30 жарко 1008.7 999.9
04 17.10 С 7 н/о н/о +32.3 +5.0 18 +30 +30 жарко 1007.4 998.6
06 17.10 З 8 н/о н/о +26.0 +5.8 27 +29 +29 душно 1006.2 997.5
07 17.10 З 7 н/о н/о +25.7 +13.5 47 +28 +28 жарко 1005.9 997.2
09 17.10 З 6 н/о н/о +22.4 +8.5 41 +24 +24 комфорт 1006.1 997.4
10 17.10 З 4 н/о н/о +20.2 +10.9 55 +22 +22 комфорт 1006.4 997.7
12 17.10 З 3 н/о н/о +16.9 +13.4 80 +17 +17 1007.0 998.3
13 17.10 С 2 н/о н/о +15.4 +12.9 85 +15 +15 1007.0 998.3 +34.4
15 17.10 СЗ 3 н/о н/о +16.4 +12.6 78 +16 +16 1006.2 997.5
16 17.10 С 3 н/о н/о +15.2 +12.9 86 +14 +14 1005.8 997.1
18 17.10 З 6 н/о н/о +13.7 +12.4 92 +11 +11 1005.9 997.2
19 17.10 СЗ 4 н/о в посл. час дождь {туман} н/о +13.6 +12.0 90 +12 +12 1005.8 997.1
21 17.10 С 2 н/о н/о +13.1 +11.5 90 +12 +12 1005.5 996.8
22 17.10 СЗ 3 н/о в посл. час осадки н/о +13.0 +11.4 90 +12 +12 1006.3 997.6
00 18.10 З 7 н/о н/о +16.5 +9.7 64 +15 +15 1007.3 998.5
01 18.10 З 7 н/о {осадки} н/о +16.8 +8.0 56 +16 +16 1007.7 998.9 +12.8 2
03 18.10 З 5 н/о н/о +12.2 +9.4 83 +10 +10 1009.4 1000.6
04 18.10 СЗ 4 н/о осадки н/о +11.9 +9.5 85 +10 +10 1009.2 1000.4
06 18.10 З 12 н/о н/о +14.6 +10.2 75 +12 +12 1009.7 1000.9
07 18.10 З 7 н/о {осадки} н/о +16.6 +8.1 57 +15 +15 1010.2 1001.4 3
09 18.10 З 7 н/о н/о +15.2 +7.7 61 +13 +13 1011.5 1002.7
10 18.10 ЮЗ 6 н/о осадки н/о +12.1 +8.2 77 +9 +9 1012.9 1004.1
12 18.10 ЮЗ 3 н/о н/о +11.2 +8.4 83 +10 +10 1014.8 1006.0
13 18.10 СЗ 1 н/о {осадки} н/о +9.1 +7.2 88 +8 +8 1015.5 1006.7 +18.3 0.4
15 18.10 З 3 н/о н/о +9.9 +7.8 87 +8 +8 1016.3 1007.5
16 18.10 Ю 3 н/о {осадки} н/о +9.9 +7.8 87 +8 +8 1016.6 1007.8
18 18.10 С 2 н/о н/о +9.1 +7.7 91 +8 +8 1017.0 1008.2
19 18.10 ЮЗ 1 н/о {осадки} н/о +10.0 +8.4 90 +9 +9 1017.3 1008.5 0.4
21 18.10 З 1 н/о н/о +8.1 +6.2 88 +7 +7 1018.5 1009.7
22 18.10 СВ 3 н/о н/о +8.5 +7.1 91 +6 +6 1019.5 1010.6
00 19.10 штиль 0 н/о н/о +13.4 +9.6 78 +13 +13 1021.2 1012.3
01 19.10 СВ 2 н/о н/о +15.1 +9.7 70 +15 +15 1021.7 1012.8 +7.6 4
03 19.10 В 3 н/о н/о +15.6 +7.4 58 +15 +15 1021.9 1013.0
04 19.10 ЮЗ 4 н/о {осадки} н/о +18.5 +5.0 41 +19 +19 1021.4 1012.5
06 19.10 ЮЗ 5 н/о н/о +18.8 +6.9 46 +19 +19 1021.2 1012.3
07 19.10 ЮЗ 6 н/о {осадки} н/о +17.7 +7.2 50 +17 +17 1021.1 1012.2 0.4
09 19.10 Ю 5 н/о н/о +17.7 +7.7 52 +17 +17 1021.6 1012.7
10 19.10 ЮЗ 5 н/о н/о +16.1 +7.8 58 +15 +15 1022.0 1013.1
12 19.10 штиль 0 н/о н/о +10.5 +7.6 82 +10 +10 1023.2 1014.3
13 19.10 В 1 н/о н/о +8.5 +6.3 86 +9 +9 1023.1 1014.2 +20.1
15 19.10 штиль 0 н/о н/о +6.9 +5.2 89 +6 +6 1022.4 1013.5
16 19.10 штиль 0 н/о н/о +6.2 +4.7 90 +5 +5 1022.2 1013.3
18 19.10 СВ 1 н/о н/о +4.8 +3.5 91 +5 +5 1021.1 1012.2
19 19.10 СВ 2 н/о н/о +5.8 +4.8 93 +4 +4 1020.7 1011.8
21 19.10 СВ 1 н/о н/о +4.4 +3.4 93 +3 +3 1020.8 1011.9
22 19.10 СВ 2 н/о н/о +6.1 +5.2 94 +4 +4 1021.0 1012.1
00 20.10 С 3 н/о н/о +16.1 +9.8 66 +16 +16 1021.1 1012.2
01 20.10 С 4 н/о н/о +17.6 +8.5 55 +17 +17 1021.2 1012.3 +3.8 0.4
03 20.10 СЗ 5 н/о н/о +20.4 +9.3 49 +22 +22 комфорт 1019.6 1010.7
04 20.10 З 7 н/о н/о +20.9 +8.5 45 +22 +22 комфорт 1018.6 1009.8
06 20.10 З 7 н/о н/о +19.9 +9.2 50 +21 +21 комфорт 1018.2 1009.4
07 20.10 З 7 н/о н/о +20.0 +10.1 53 +21 +21 комфорт 1017.7 1008.9
09 20.10 З 5 н/о н/о +18.2 +10.8 62 +18 +18 1018.1 1009.3
10 20.10 З 7 н/о н/о +16.9 +11.4 70 +16 +16 1018.1 1009.3
12 20.10 З 4 н/о н/о +14.8 +11.9 83 +14 +14 1018.8 1009.9
13 20.10 З 3 н/о н/о +15.1 +11.9 81 +14 +14 1019.1 1010.2 +22.2
15 20.10 СЗ 3 н/о н/о +14.6 +11.7 83 +14 +14 1017.6 1008.8
16 20.10 СЗ 3 н/о н/о +14.6 +11.0 79 +14 +14 1017.2 1008.4
18 20.10 З 4 н/о н/о +15.5 +11.3 76 +15 +15 1016.1 1007.3
19 20.10 З 3 н/о н/о +15.2 +10.0 71 +15 +15 1015.9 1007.1
21 20.10 З 4 н/о н/о +15.2 +11.0 76 +14 +14 1016.3 1007.5
22 20.10 СЗ 3 н/о н/о +13.8 +11.0 83 +13 +13 1016.6 1007.8
00 21.10 З 7 н/о н/о +17.8 +9.9 60 +17 +17 1017.5 1008.7
01 21.10 З 7 н/о н/о +19.5 +12.3 63 +20 +20 1017.2 1008.4 +13.7
03 21.10 З 8 н/о н/о +16.7 +14.0 84 +15 +15 1017.6 1008.8
04 21.10 З 8 н/о {осадки} н/о +20.2 +11.9 59 +22 +22 комфорт 1017.0 1008.2
06 21.10 З 8 н/о н/о +21.7 +12.3 55 +24 +24 комфорт 1016.5 1007.7
07 21.10 З 10 н/о {осадки} н/о +18.9 +12.4 66 +19 +19 1016.7 1007.9 0.2
09 21.10 ЮЗ 9 н/о н/о +18.8 +11.6 63 +19 +19 1016.9 1008.1
10 21.10 З 6 н/о н/о +17.4 +11.9 70 +17 +17 1017.2 1008.4
12 21.10 З 5 н/о н/о +15.5 +9.6 68 +14 +14 1018.5 1009.7
13 21.10 ЮЗ 4 н/о н/о +14.4 +8.4 67 +13 +13 1019.1 1010.2 +22.3
15 21.10 З 2 н/о н/о +10.3 +6.8 79 +9 +9 1019.0 1010.1
16 21.10 СЗ 3 н/о н/о +11.6 +7.9 78 +10 +10 1018.8 1009.9
18 21.10 З 2 н/о н/о +11.2 +7.1 76 +10 +10 1018.0 1009.2
19 21.10 СЗ 3 н/о н/о +11.9 +7.4 74 +11 +11 1018.2 1009.4
21 21.10 ЮЗ 2 н/о н/о +12.3 +8.8 79 +12 +12 1018.8 1009.9
22 21.10 ЮЗ 3 н/о н/о +13.9 +8.9 72 +13 +13 1019.5 1010.6
00 22.10 ЮЗ 5 н/о н/о +16.6 +6.7 52 +16 +16 1020.6 1011.7
01 22.10 ЮЗ 5 н/о н/о +17.1 +6.0 48 +16 +16 1021.1 1012.2 +10.3 0.2
03 22.10 ЮЗ 6 н/о н/о +18.5 +7.0 47 +18 +18 1020.9 1012.0
04 22.10 ЮЗ 5 н/о н/о +18.6 +8.0 50 +19 +19 1020.6 1011.7
06 22.10 ЮЗ 7 н/о н/о +16.1 +11.3 73 +15 +15 1020.4 1011.5
07 22.10 ЮЗ 5 н/о н/о +18.4 +9.2 55 +18 +18 1019.8 1010.9
09 22.10 ЮЗ 6 н/о н/о +17.7 +8.3 54 +17 +17 1020.0 1011.1
10 22.10 ЮЗ 6 н/о н/о +16.2 +8.9 62 +15 +15 1020.3 1011.4
12 22.10 Ю 3 н/о н/о +12.9 +8.8 76 +12 +12 1021.2 1012.3
13 22.10 Ю 2 н/о н/о +9.6 +6.3 80 +8 +8 1021.3 1012.4 +19.7
15 22.10 штиль 0 н/о н/о +6.2 +4.4 88 +5 +5 1020.9 1012.0
16 22.10 Ю 1 н/о н/о +5.9 +4.2 89 +5 +5 1020.5 1011.6
18 22.10 Ю 2 н/о н/о +5.2 +3.7 90 +2 +2 1019.4 1010.5
19 22.10 штиль 0 н/о н/о +4.6 +3.1 90 +4 +4 1019.4 1010.5
21 22.10 Ю 1 н/о н/о +3.9 +2.6 91 +4 +4 1019.3 1010.4
22 22.10 Ю 1 н/о н/о +3.8 +2.5 91 +2 +2 1019.7 1010.8
00 23.10 В 3 н/о н/о +14.8 +8.3 65 +14 +14 1019.7 1010.8
01 23.10 В 3 н/о н/о +18.4 +7.8 50 +19 +19 1019.3 1010.4 +2.8
03 23.10 СЗ 3 н/о н/о +21.0 +6.2 38 +22 +22 комфорт 1018.4 1009.6
04 23.10 З 3 н/о н/о +20.7 +7.0 41 +22 +22 комфорт 1017.7 1008.9
06 23.10 З 5 н/о н/о +21.0 +6.2 38 +22 +22 комфорт 1016.8 1008.0
07 23.10 ЮЗ 5 н/о н/о +21.0 +6.9 40 +22 +22 комфорт 1016.1 1007.3
09 23.10 ЮЗ 6 н/о н/о +18.6 +8.0 50 +19 +19 1016.3 1007.5
10 23.10 ЮЗ 5 н/о н/о +17.0 +9.4 61 +16 +16 1016.4 1007.6
12 23.10 ЮЗ 2 н/о н/о +13.1 +8.8 75 +12 +12 1017.0 1008.2
13 23.10 ЮЗ 3 н/о н/о +12.9 +9.4 79 +12 +12 1016.7 1007.9 +22.0
15 23.10 Ю 2 н/о н/о +9.8 +7.6 86 +8 +8 1016.1 1007.3
16 23.10 Ю 1 н/о н/о +8.5 +6.6 88 +9 +9 1015.6 1006.8
18 23.10 штиль 0 н/о н/о +7.2 +5.8 91 +6 +6 1014.6 1005.8
19 23.10 ЮВ 2 н/о н/о +8.1 +6.9 92 +6 +6 1014.3 1005.5
21 23.10 В 2 н/о н/о +9.6 +8.5 93 +8 +8 1013.9 1005.1
22 23.10 штиль 0 н/о н/о +10.6 +9.4 92 +10 +10 1014.5 1005.7

 

Местоположение метеостанции Gingin Aero (Западная Австралия, Австралия): широта -31.47 долгота 115.87 высота над уровнем моря 75 м.

В архиве по умолчанию представлена погода в Gingin Aero за последнюю неделю. Архивные данные за месяц целиком и за предыдущие месяцы, начиная с января 2011 года, Вы можете получить, выбрав интересующий диапазон дат из раскрывающегося списка и нажав кнопку "Ввод!".


*Определитесь, кто Вы:
робот инопланетянин человек

Внимание! Время в таблицах - всемирное. Для получения местного времени необходимо прибавить поправку, которая в Gingin Aero равна 8 ч.

Смотрите также архив погоды в соседних городах и на ближайших метеорологических станциях:

Погода в Bullsbrook Pearce Amo (Западная Австралия, Австралия) (26 км)
Погода в Wanneroo (Западная Австралия, Австралия) (35 км)
Погода в Mount Lawley Perth Metro (Западная Австралия, Австралия) (50 км)
Погода в Perth (Западная Австралия, Австралия) (52 км)
Погода в Swanbourne (Западная Австралия, Австралия) (54 км)
Погода в Goosebery Hill (Западная Австралия, Австралия) (56 км)
Погода в Kalamunda Bickley (Западная Австралия, Австралия) (66 км)
Погода в Perth Jandakot Airport (Западная Австралия, Австралия) (70 км)
Погода в Rottnest Island (Западная Австралия, Австралия) (70 км)
Погода в Garden Island Airpoet (Западная Австралия, Австралия) (86 км)

Пояснения к столбцам:

Ветер - указаны скорость ветра в м/с - средняя за 10 мин, порывы в срок и между сроками (в фигурных скобках) и направление, откуда дует ветер: С - северный, СВ - северо-восточный, В - восточный, ЮВ - юго-восточный, Ю - южный, ЮЗ - юго-западный, З - западный, СЗ - северо-западный.
Видимость - горизонтальная дальность видимости в метрах или километрах. При видимости от 1 до 10 км при отсутствии осадков обычно наблюдается дымка, при ухудшении видимости до 1 км и менее - туман. В сухую погоду видимость может ухудшаться дымом, пылью или мглою.
Явления - указаны атмосферные явления, наблюдавшиеся в срок или в последний час перед сроком; фигурными скобками обозначены явления, наблюдавшиеся между сроками (за 1-3 часа до срока); квадратными скобками обозначены град или гололедные отложения с указанием их диаметра в мм.
Облачность - указаны через наклонную черту общая и нижняя облачность в баллах и высота нижней границы облаков в метрах; квадратными скобками обозначены формы облаков: Ci - перистые, Cs - перисто-слоистые, Cc - перисто-кучевые, Ac - высококучевые, As - высокослоистые, Sc - слоисто-кучевые, Ns - слоисто-дождевые, Cu - кучевые, Cb - кучево-дождевые. Подробнее классификацию облаков см. в Атласе облаков (PDF).
T - Температура воздуха - температура, измеренная на высоте 2 м над землей.
Td - Температура точки росы - температура, при понижении до которой содержащийся в воздухе водяной пар достигнет насыщения.
f - Относительная влажность воздуха - влажноcть воздуха, измеренная на высоте 2 м над землей.
Te - Эффективная температура - температура, которую ощущает одетый по сезону человек в тени. Характеристика душности погоды. При расчете учитывается влияние влажности воздуха и скорости ветра на теплоощущения человека.
Tes - Эффективная температура на солнце - температура, которую ощущает человек, с поправкой на солнечный нагрев. Характеристика знойности погоды. Зависит от высоты солнца над горизонтом, облачности и скорости ветра. Ночью, в пасмурную погоду, а также при ветре 12 м/с и более поправка равна нулю.
P - Атмосферное давление - приведенное к уровню моря атмосферное давление.
Po - Атмосферное давление - измеренное на уровне метеостанции атмосферное давление.
Tmin - Минимальная температура - минимум температуры воздуха на высоте 2 м над землей.
Tmax - Максимальная температура - максимум температуры воздуха на высоте 2 м над землей.
R - Количество осадков - Количество выпавших осадков за период времени, мм. При наведении курсора мыши на число - период времени, за который выпало указанное количество осадков.
R24 - Количество осадков - Количество выпавших осадков за 24 часа, мм.
S - Снежный покров - Высота снежного покрова, см. При наведении курсора мыши на число - состояние снежного покрова и степень покрытия местности в баллах.